Time,TemperatureF,DewpointF,PressureIn,WindDirection,WindDirectionDegrees,WindSpeedMPH,WindSpeedGustMPH,Humidity,HourlyPrecipIn,Conditions,Clouds,dailyrainin,SolarRadiationWatts/m^2,SoftwareType,DateUTC
2013-05-12 00:00:00,71.7,54.2,30.04,NNE,32,5.0,5.0,54,0.00,,,0.00,0,Wunderground v.1.15,2013-05-12 05:00:00,
2013-05-12 00:10:00,71.6,54.1,30.04,NNE,32,5.0,6.0,54,0.00,,,0.00,0,Wunderground v.1.15,2013-05-12 05:10:00,
2013-05-12 00:20:00,71.4,53.4,30.04,NNE,30,4.0,9.0,53,0.00,,,0.00,0,Wunderground v.1.15,2013-05-12 05:20:00,
2013-05-12 00:25:00,71.3,53.3,30.04,NNE,31,3.0,9.0,53,0.00,,,0.00,0,Wunderground v.1.15,2013-05-12 05:25:00,
2013-05-12 00:30:00,71.3,53.3,30.04,NNE,30,3.0,3.0,53,0.00,,,0.00,0,Wunderground v.1.15,2013-05-12 05:30:00,
2013-05-12 00:35:00,71.2,53.2,30.04,NNE,23,2.0,6.0,53,0.00,,,0.00,0,Wunderground v.1.15,2013-05-12 05:35:00,
2013-05-12 00:40:00,71.1,53.1,30.04,NNE,27,3.0,5.0,53,0.00,,,0.00,0,Wunderground v.1.15,2013-05-12 05:40:00,
2013-05-12 00:45:00,71.1,52.6,30.04,NE,38,3.0,5.0,52,0.00,,,0.00,0,Wunderground v.1.15,2013-05-12 05:45:00,
2013-05-12 00:50:00,71.0,53.0,30.04,NE,38,3.0,3.0,53,0.00,,,0.00,0,Wunderground v.1.15,2013-05-12 05:50:00,
2013-05-12 00:55:00,71.0,53.0,30.04,NE,37,3.0,6.0,53,0.00,,,0.00,0,Wunderground v.1.15,2013-05-12 05:55:00,
2013-05-12 01:00:00,70.9,52.9,30.03,NNE,32,3.0,3.0,53,0.00,,,0.00,0,Wunderground v.1.15,2013-05-12 06:00:00,
2013-05-12 01:10:00,70.7,52.7,30.03,NE,46,5.0,7.0,53,0.00,,,0.00,0,Wunderground v.1.15,2013-05-12 06:10:00,
2013-05-12 01:15:00,70.7,52.2,30.03,NE,43,5.0,7.0,52,0.00,,,0.00,0,Wunderground v.1.15,2013-05-12 06:15:00,
2013-05-12 01:20:00,70.6,52.1,30.03,NE,46,4.0,4.0,52,0.00,,,0.00,0,Wunderground v.1.15,2013-05-12 06:20:00,
2013-05-12 01:25:00,70.6,52.1,30.03,NE,44,4.0,4.0,52,0.00,,,0.00,0,Wunderground v.1.15,2013-05-12 06:25:00,
2013-05-12 01:35:00,70.3,51.8,30.02,NNE,21,5.0,5.0,52,0.00,,,0.00,0,Wunderground v.1.15,2013-05-12 06:35:00,
2013-05-12 01:40:00,70.3,51.3,30.02,NE,47,6.0,6.0,51,0.00,,,0.00,0,Wunderground v.1.15,2013-05-12 06:40:00,
2013-05-12 01:45:00,70.2,51.2,30.00,NE,49,6.0,6.0,51,0.00,,,0.00,0,Wunderground v.1.15,2013-05-12 06:45:00,
2013-05-12 01:50:00,70.2,51.2,30.00,NNE,32,6.0,7.0,51,0.00,,,0.00,0,Wunderground v.1.15,2013-05-12 06:50:00,
2013-05-12 01:55:00,70.1,51.1,30.00,NE,41,5.0,7.0,51,0.00,,,0.00,0,Wunderground v.1.15,2013-05-12 06:55:00,
2013-05-12 02:00:00,70.1,51.1,30.03,NE,40,4.0,4.0,51,0.00,,,0.00,0,Wunderground v.1.15,2013-05-12 07:00:00,
2013-05-12 02:10:00,69.7,51.3,30.03,NE,44,2.0,4.0,52,0.00,,,0.00,0,Wunderground v.1.15,2013-05-12 07:10:00,
2013-05-12 02:15:00,69.5,51.1,30.02,NE,47,4.0,4.0,52,0.00,,,0.00,0,Wunderground v.1.15,2013-05-12 07:15:00,
2013-05-12 02:20:00,69.3,50.9,30.02,NE,47,4.0,4.0,52,0.00,,,0.00,0,Wunderground v.1.15,2013-05-12 07:20:00,
2013-05-12 02:25:00,69.1,50.7,30.02,NE,46,3.0,4.0,52,0.00,,,0.00,0,Wunderground v.1.15,2013-05-12 07:25:00,
2013-05-12 02:30:00,68.9,50.5,30.01,NE,46,3.0,3.0,52,0.00,,,0.00,0,Wunderground v.1.15,2013-05-12 07:30:00,
2013-05-12 02:36:00,68.7,50.9,30.01,NE,46,2.0,3.0,53,0.00,,,0.00,0,Wunderground v.1.15,2013-05-12 07:36:00,
2013-05-12 02:40:00,68.5,51.2,30.01,NE,45,0.0,0.0,54,0.00,,,0.00,0,Wunderground v.1.15,2013-05-12 07:40:00,
2013-05-12 02:45:00,68.3,51.0,30.02,NE,45,0.0,0.0,54,0.00,,,0.00,0,Wunderground v.1.15,2013-05-12 07:45:00,
2013-05-12 02:50:00,68.1,51.8,30.02,NE,46,0.0,0.0,56,0.00,,,0.00,0,Wunderground v.1.15,2013-05-12 07:50:00,
2013-05-12 03:00:00,67.3,51.5,30.02,NE,46,1.0,1.0,57,0.00,,,0.00,0,Wunderground v.1.15,2013-05-12 08:00:00,
2013-05-12 03:10:00,66.5,51.3,30.02,NE,46,0.0,0.0,58,0.00,,,0.00,0,Wunderground v.1.15,2013-05-12 08:10:00,
2013-05-12 03:15:00,66.2,50.5,30.01,NE,46,0.0,0.0,57,0.00,,,0.00,0,Wunderground v.1.15,2013-05-12 08:15:00,
2013-05-12 03:20:00,65.8,50.6,30.01,NE,45,0.0,0.0,58,0.00,,,0.00,0,Wunderground v.1.15,2013-05-12 08:20:00,
2013-05-12 03:30:00,65.1,50.9,30.02,NE,46,0.0,0.0,60,0.00,,,0.00,0,Wunderground v.1.15,2013-05-12 08:30:00,
2013-05-12 03:36:00,64.7,50.9,30.02,NE,46,0.0,0.0,61,0.00,,,0.00,0,Wunderground v.1.15,2013-05-12 08:36:00,
2013-05-12 03:45:00,64.0,50.7,30.02,NE,46,0.0,0.0,62,0.00,,,0.00,0,Wunderground v.1.15,2013-05-12 08:45:00,
2013-05-12 03:50:00,63.6,50.3,30.02,NE,45,0.0,0.0,62,0.00,,,0.00,0,Wunderground v.1.15,2013-05-12 08:50:00,
2013-05-12 03:55:00,63.2,50.4,30.02,NE,45,0.0,0.0,63,0.00,,,0.00,0,Wunderground v.1.15,2013-05-12 08:55:00,
2013-05-12 04:00:00,62.9,50.5,30.02,NE,45,0.0,0.0,64,0.00,,,0.00,0,Wunderground v.1.15,2013-05-12 09:00:00,
2013-05-12 04:05:00,62.5,50.6,30.02,NE,45,0.0,0.0,65,0.00,,,0.00,0,Wunderground v.1.15,2013-05-12 09:05:00,
2013-05-12 04:10:00,62.3,50.8,30.02,NE,44,0.0,2.0,66,0.00,,,0.00,0,Wunderground v.1.15,2013-05-12 09:10:00,
2013-05-12 04:15:00,62.1,50.6,30.03,NE,42,0.0,2.0,66,0.00,,,0.00,0,Wunderground v.1.15,2013-05-12 09:15:00,
2013-05-12 04:20:00,61.9,50.4,30.03,NE,36,1.0,3.0,66,0.00,,,0.00,0,Wunderground v.1.15,2013-05-12 09:20:00,
2013-05-12 04:25:00,61.8,50.7,30.03,NNE,30,1.0,3.0,67,0.00,,,0.00,0,Wunderground v.1.15,2013-05-12 09:25:00,
2013-05-12 04:30:00,61.8,50.7,30.03,NNE,30,1.0,1.0,67,0.00,,,0.00,0,Wunderground v.1.15,2013-05-12 09:30:00,
2013-05-12 04:35:00,61.8,50.7,30.03,NNE,30,1.0,1.0,67,0.00,,,0.00,0,Wunderground v.1.15,2013-05-12 09:35:00,
2013-05-12 04:45:00,62.0,50.5,30.03,NNE,29,1.0,2.0,66,0.00,,,0.00,0,Wunderground v.1.15,2013-05-12 09:45:00,
2013-05-12 04:50:00,62.1,50.6,30.03,NNE,28,1.0,1.0,66,0.00,,,0.00,0,Wunderground v.1.15,2013-05-12 09:50:00,
2013-05-12 04:55:00,62.2,50.3,30.03,NNE,28,2.0,2.0,65,0.00,,,0.00,0,Wunderground v.1.15,2013-05-12 09:55:00,
2013-05-12 05:05:00,62.2,50.7,30.03,NNE,28,1.0,2.0,66,0.00,,,0.00,0,Wunderground v.1.15,2013-05-12 10:05:00,
2013-05-12 05:10:00,62.1,50.2,30.03,NNE,26,1.0,1.0,65,0.00,,,0.00,0,Wunderground v.1.15,2013-05-12 10:10:00,
2013-05-12 05:15:00,62.0,50.1,30.03,NNE,26,1.0,3.0,65,0.00,,,0.00,0,Wunderground v.1.15,2013-05-12 10:15:00,
2013-05-12 05:20:00,62.0,50.1,30.03,NNE,27,1.0,2.0,65,0.00,,,0.00,0,Wunderground v.1.15,2013-05-12 10:20:00,
2013-05-12 05:25:00,61.9,50.0,30.03,NNE,26,1.0,2.0,65,0.00,,,0.00,0,Wunderground v.1.15,2013-05-12 10:25:00,
2013-05-12 05:30:00,61.8,49.9,30.03,NNE,27,0.0,0.0,65,0.00,,,0.00,0,Wunderground v.1.15,2013-05-12 10:30:00,
2013-05-12 05:35:00,61.7,49.8,30.03,NNE,27,0.0,0.0,65,0.00,,,0.00,0,Wunderground v.1.15,2013-05-12 10:35:00,
2013-05-12 05:45:00,61.6,50.1,30.03,NNE,26,0.0,0.0,66,0.00,,,0.00,0,Wunderground v.1.15,2013-05-12 10:45:00,
2013-05-12 05:50:00,61.5,50.0,30.03,NNE,27,0.0,0.0,66,0.00,,,0.00,0,Wunderground v.1.15,2013-05-12 10:50:00,
2013-05-12 05:55:00,61.4,49.9,30.03,NNE,28,0.0,0.0,66,0.00,,,0.00,0,Wunderground v.1.15,2013-05-12 10:55:00,
2013-05-12 06:00:00,61.3,49.8,30.05,NNE,26,0.0,0.0,66,0.00,,,0.00,0,Wunderground v.1.15,2013-05-12 11:00:00,
2013-05-12 06:05:00,61.2,49.7,30.05,NNE,27,0.0,0.0,66,0.00,,,0.00,0,Wunderground v.1.15,2013-05-12 11:05:00,
2013-05-12 06:10:00,61.1,50.1,30.05,NNE,27,1.0,2.0,67,0.00,,,0.00,0,Wunderground v.1.15,2013-05-12 11:10:00,
2013-05-12 06:15:00,61.0,50.0,30.05,NNE,26,2.0,2.0,67,0.00,,,0.00,0,Wunderground v.1.15,2013-05-12 11:15:00,
2013-05-12 06:20:00,61.0,50.4,30.05,NNE,27,2.0,2.0,68,0.00,,,0.00,0,Wunderground v.1.15,2013-05-12 11:20:00,
2013-05-12 06:25:00,61.0,50.4,30.05,NNE,26,1.0,2.0,68,0.00,,,0.00,0,Wunderground v.1.15,2013-05-12 11:25:00,
2013-05-12 06:30:00,60.9,50.3,30.05,NNE,26,1.0,1.0,68,0.00,,,0.00,0,Wunderground v.1.15,2013-05-12 11:30:00,
2013-05-12 06:35:00,60.9,50.3,30.05,NNE,26,0.0,1.0,68,0.00,,,0.00,0,Wunderground v.1.15,2013-05-12 11:35:00,
2013-05-12 06:40:00,60.8,50.2,30.05,NNE,26,0.0,0.0,68,0.00,,,0.00,0,Wunderground v.1.15,2013-05-12 11:40:00,
2013-05-12 06:45:00,60.7,50.1,30.06,NNE,26,0.0,0.0,68,0.00,,,0.00,5,Wunderground v.1.15,2013-05-12 11:45:00,
2013-05-12 06:55:00,60.5,50.3,30.06,NNE,32,1.0,1.0,69,0.00,,,0.00,9,Wunderground v.1.15,2013-05-12 11:55:00,
2013-05-12 07:00:00,60.4,50.2,30.07,NNE,33,1.0,1.0,69,0.00,,,0.00,11,Wunderground v.1.15,2013-05-12 12:00:00,
2013-05-12 07:10:00,60.3,50.5,30.07,NNE,32,0.0,0.0,70,0.00,,,0.00,16,Wunderground v.1.15,2013-05-12 12:10:00,
2013-05-12 07:15:00,60.2,50.4,30.08,NNE,33,1.0,1.0,70,0.00,,,0.00,23,Wunderground v.1.15,2013-05-12 12:15:00,
2013-05-12 07:20:00,60.3,50.5,30.08,NE,34,1.0,1.0,70,0.00,,,0.00,32,Wunderground v.1.15,2013-05-12 12:20:00,
2013-05-12 07:30:00,60.3,50.5,30.09,NW,321,0.0,0.0,70,0.00,,,0.00,62,Wunderground v.1.15,2013-05-12 12:30:00,
2013-05-12 07:40:00,60.5,51.4,30.09,NW,322,0.0,0.0,72,0.00,,,0.00,107,Wunderground v.1.15,2013-05-12 12:40:00,
2013-05-12 07:45:00,60.8,52.1,30.10,NW,305,0.0,0.0,73,0.00,,,0.00,114,Wunderground v.1.15,2013-05-12 12:45:00,
2013-05-12 07:50:00,61.1,52.4,30.10,NW,305,0.0,0.0,73,0.00,,,0.00,98,Wunderground v.1.15,2013-05-12 12:50:00,
2013-05-12 07:55:00,61.5,52.4,30.10,NW,306,1.0,1.0,72,0.00,,,0.00,109,Wunderground v.1.15,2013-05-12 12:55:00,
2013-05-12 08:00:00,61.9,52.4,30.11,NW,309,1.0,1.0,71,0.00,,,0.00,107,Wunderground v.1.15,2013-05-12 13:00:00,
2013-05-12 08:05:00,62.4,52.5,30.11,NW,309,2.0,2.0,70,0.00,,,0.00,84,Wunderground v.1.15,2013-05-12 13:05:00,
2013-05-12 08:10:00,62.8,52.9,30.11,North,360,1.0,3.0,70,0.00,,,0.00,72,Wunderground v.1.15,2013-05-12 13:10:00,
2013-05-12 08:15:00,63.1,52.8,30.12,North,9,2.0,3.0,69,0.00,,,0.00,76,Wunderground v.1.15,2013-05-12 13:15:00,
2013-05-12 08:25:00,63.8,52.6,30.12,North,10,2.0,3.0,67,0.00,,,0.00,93,Wunderground v.1.15,2013-05-12 13:25:00,
2013-05-12 08:35:00,64.2,53.0,30.13,North,9,0.0,1.0,67,0.00,,,0.00,120,Wunderground v.1.15,2013-05-12 13:35:00,
2013-05-12 08:40:00,64.4,52.8,30.13,North,9,0.0,2.0,66,0.00,,,0.00,121,Wunderground v.1.15,2013-05-12 13:40:00,
2013-05-12 08:45:00,64.7,53.5,30.13,NNW,329,0.0,2.0,67,0.00,,,0.00,114,Wunderground v.1.15,2013-05-12 13:45:00,
2013-05-12 08:50:00,64.9,53.3,30.13,North,360,0.0,3.0,66,0.00,,,0.00,107,Wunderground v.1.15,2013-05-12 13:50:00,
2013-05-12 09:00:00,65.3,53.2,30.14,NNE,19,1.0,1.0,65,0.00,,,0.00,113,Wunderground v.1.15,2013-05-12 14:00:00,
2013-05-12 09:10:00,65.7,54.0,30.14,NNE,17,1.0,1.0,66,0.00,,,0.00,111,Wunderground v.1.15,2013-05-12 14:10:00,
2013-05-12 09:20:00,65.9,54.2,30.15,NNE,21,0.0,0.0,66,0.00,,,0.00,134,Wunderground v.1.15,2013-05-12 14:20:00,
2013-05-12 09:25:00,66.0,54.3,30.15,NNE,19,0.0,0.0,66,0.00,,,0.00,155,Wunderground v.1.15,2013-05-12 14:25:00,
2013-05-12 09:30:00,66.3,55.4,30.15,NNE,19,0.0,0.0,68,0.00,,,0.00,165,Wunderground v.1.15,2013-05-12 14:30:00,
2013-05-12 09:35:00,66.4,54.3,30.15,NNE,16,0.0,0.0,65,0.00,,,0.00,179,Wunderground v.1.15,2013-05-12 14:35:00,
2013-05-12 09:45:00,66.8,55.1,30.16,North,360,1.0,1.0,66,0.00,,,0.00,202,Wunderground v.1.15,2013-05-12 14:45:00,
2013-05-12 09:50:00,67.0,54.0,30.16,NNE,14,2.0,2.0,63,0.00,,,0.00,230,Wunderground v.1.15,2013-05-12 14:50:00,
2013-05-12 09:55:00,67.2,54.2,30.16,NNE,29,4.0,4.0,63,0.00,,,0.00,267,Wunderground v.1.15,2013-05-12 14:55:00,
2013-05-12 10:05:00,67.8,54.7,30.14,NNE,28,3.0,3.0,63,0.00,,,0.00,304,Wunderground v.1.15,2013-05-12 15:05:00,
2013-05-12 10:10:00,68.2,54.7,30.14,NE,36,3.0,6.0,62,0.00,,,0.00,394,Wunderground v.1.15,2013-05-12 15:10:00,
2013-05-12 10:15:00,68.8,54.8,30.14,NNE,30,4.0,6.0,61,0.00,,,0.00,446,Wunderground v.1.15,2013-05-12 15:15:00,
2013-05-12 10:20:00,69.4,55.4,30.14,North,360,5.0,7.0,61,0.00,,,0.00,455,Wunderground v.1.15,2013-05-12 15:20:00,
2013-05-12 10:25:00,69.8,54.8,30.14,NNE,15,5.0,7.0,59,0.00,,,0.00,439,Wunderground v.1.15,2013-05-12 15:25:00,
2013-05-12 10:30:00,70.0,55.5,30.13,NNE,32,5.0,5.0,60,0.00,,,0.00,334,Wunderground v.1.15,2013-05-12 15:30:00,
2013-05-12 10:35:00,69.9,55.4,30.13,NNE,26,4.0,5.0,60,0.00,,,0.00,329,Wunderground v.1.15,2013-05-12 15:35:00,
2013-05-12 10:40:00,69.9,55.4,30.13,NNE,18,4.0,5.0,60,0.00,,,0.00,323,Wunderground v.1.15,2013-05-12 15:40:00,
2013-05-12 10:45:00,70.1,55.1,30.12,NE,38,5.0,5.0,59,0.00,,,0.00,316,Wunderground v.1.15,2013-05-12 15:45:00,
2013-05-12 10:50:00,70.2,55.2,30.12,NE,49,6.0,6.0,59,0.00,,,0.00,323,Wunderground v.1.15,2013-05-12 15:50:00,
2013-05-12 11:00:00,70.4,55.4,30.12,NE,41,4.0,4.0,59,0.00,,,0.00,332,Wunderground v.1.15,2013-05-12 16:00:00,
2013-05-12 11:05:00,70.6,56.5,30.12,NE,51,4.0,6.0,61,0.00,,,0.00,338,Wunderground v.1.15,2013-05-12 16:05:00,
2013-05-12 11:10:00,70.7,55.7,30.12,NNE,22,5.0,6.0,59,0.00,,,0.00,380,Wunderground v.1.15,2013-05-12 16:10:00,
2013-05-12 11:15:00,71.0,56.4,30.10,NE,44,5.0,6.0,60,0.00,,,0.00,385,Wunderground v.1.15,2013-05-12 16:15:00,
2013-05-12 11:20:00,71.2,55.7,30.10,NNE,29,6.0,6.0,58,0.00,,,0.00,353,Wunderground v.1.15,2013-05-12 16:20:00,
2013-05-12 11:25:00,71.3,55.8,30.10,NE,45,7.0,9.0,58,0.00,,,0.00,461,Wunderground v.1.15,2013-05-12 16:25:00,
2013-05-12 11:35:00,71.9,56.3,30.10,NE,55,7.0,11.0,58,0.00,,,0.00,475,Wunderground v.1.15,2013-05-12 16:35:00,
2013-05-12 11:45:00,72.4,56.3,30.10,NE,43,8.0,9.0,57,0.00,,,0.00,413,Wunderground v.1.15,2013-05-12 16:45:00,
2013-05-12 11:50:00,72.7,56.1,30.10,ENE,65,7.0,10.0,56,0.00,,,0.00,294,Wunderground v.1.15,2013-05-12 16:50:00,
2013-05-12 11:55:00,72.4,55.8,30.10,NE,50,6.0,10.0,56,0.00,,,0.00,246,Wunderground v.1.15,2013-05-12 16:55:00,
2013-05-12 12:05:00,73.9,56.7,30.11,NE,48,5.0,10.0,55,0.00,,,0.00,1123,Wunderground v.1.15,2013-05-12 17:05:00,
2013-05-12 12:10:00,74.6,55.8,30.11,NE,39,6.0,9.0,52,0.00,,,0.00,339,Wunderground v.1.15,2013-05-12 17:10:00,
2013-05-12 12:15:00,73.8,55.6,30.10,NE,42,7.0,9.0,53,0.00,,,0.00,547,Wunderground v.1.15,2013-05-12 17:15:00,
2013-05-12 12:20:00,74.8,58.1,30.10,NE,41,5.0,5.0,56,0.00,,,0.00,970,Wunderground v.1.15,2013-05-12 17:20:00,
2013-05-12 12:25:00,75.8,56.9,30.10,ENE,72,4.0,5.0,52,0.00,,,0.00,977,Wunderground v.1.15,2013-05-12 17:25:00,
2013-05-12 12:30:00,76.1,57.7,30.10,NNE,23,4.0,4.0,53,0.00,,,0.00,1021,Wunderground v.1.15,2013-05-12 17:30:00,
2013-05-12 12:35:00,76.3,56.8,30.10,ENE,57,4.0,5.0,51,0.00,,,0.00,1005,Wunderground v.1.15,2013-05-12 17:35:00,
2013-05-12 12:40:00,76.4,56.4,30.10,NE,47,4.0,4.0,50,0.00,,,0.00,933,Wunderground v.1.15,2013-05-12 17:40:00,
2013-05-12 12:45:00,76.6,54.9,30.10,ENE,59,7.0,7.0,47,0.00,,,0.00,1074,Wunderground v.1.15,2013-05-12 17:45:00,
2013-05-12 12:50:00,77.0,55.8,30.10,NE,51,7.0,11.0,48,0.00,,,0.00,1069,Wunderground v.1.15,2013-05-12 17:50:00,
2013-05-12 12:55:00,77.0,55.8,30.10,East,84,4.0,11.0,48,0.00,,,0.00,754,Wunderground v.1.15,2013-05-12 17:55:00,
2013-05-12 13:00:00,77.1,54.7,30.10,East,82,4.0,4.0,46,0.00,,,0.00,998,Wunderground v.1.15,2013-05-12 18:00:00,
2013-05-12 13:05:00,77.3,55.5,30.10,NE,41,6.0,6.0,47,0.00,,,0.00,1021,Wunderground v.1.15,2013-05-12 18:05:00,
2013-05-12 13:10:00,78.0,57.9,30.10,ENE,76,5.0,6.0,50,0.00,,,0.00,1132,Wunderground v.1.15,2013-05-12 18:10:00,
2013-05-12 13:15:00,77.2,55.4,30.10,NE,48,5.0,6.0,47,0.00,,,0.00,1179,Wunderground v.1.15,2013-05-12 18:15:00,
2013-05-12 13:20:00,77.4,56.7,30.10,NE,41,5.0,12.0,49,0.00,,,0.00,621,Wunderground v.1.15,2013-05-12 18:20:00,
2013-05-12 13:25:00,77.1,57.0,30.10,ESE,119,4.0,12.0,50,0.00,,,0.00,896,Wunderground v.1.15,2013-05-12 18:25:00,
2013-05-12 13:30:00,77.4,55.6,30.09,East,83,4.0,4.0,47,0.00,,,0.00,988,Wunderground v.1.15,2013-05-12 18:30:00,
2013-05-12 13:35:00,77.3,56.1,30.09,NE,42,4.0,4.0,48,0.00,,,0.00,896,Wunderground v.1.15,2013-05-12 18:35:00,
2013-05-12 13:40:00,77.7,56.4,30.09,NE,45,4.0,11.0,48,0.00,,,0.00,1000,Wunderground v.1.15,2013-05-12 18:40:00,
2013-05-12 13:45:00,77.9,56.0,30.09,ENE,64,6.0,11.0,47,0.00,,,0.00,1002,Wunderground v.1.15,2013-05-12 18:45:00,
2013-05-12 13:50:00,78.0,55.5,30.09,NNE,32,7.0,7.0,46,0.00,,,0.00,990,Wunderground v.1.15,2013-05-12 18:50:00,
2013-05-12 13:55:00,78.7,55.6,30.09,ENE,60,6.0,7.0,45,0.00,,,0.00,979,Wunderground v.1.15,2013-05-12 18:55:00,
2013-05-12 14:00:00,78.7,55.6,30.09,NE,49,5.0,5.0,45,0.00,,,0.00,965,Wunderground v.1.15,2013-05-12 19:00:00,
2013-05-12 14:05:00,78.8,56.9,30.09,NE,41,4.0,5.0,47,0.00,,,0.00,962,Wunderground v.1.15,2013-05-12 19:05:00,
2013-05-12 14:10:00,79.3,56.1,30.09,East,94,4.0,4.0,45,0.00,,,0.00,960,Wunderground v.1.15,2013-05-12 19:10:00,
2013-05-12 14:15:00,79.6,56.4,30.09,NNE,14,2.0,4.0,45,0.00,,,0.00,960,Wunderground v.1.15,2013-05-12 19:15:00,
2013-05-12 14:20:00,79.4,55.0,30.09,North,360,3.0,3.0,43,0.00,,,0.00,932,Wunderground v.1.15,2013-05-12 19:20:00,
2013-05-12 14:25:00,79.6,57.6,30.09,ENE,71,4.0,6.0,47,0.00,,,0.00,991,Wunderground v.1.15,2013-05-12 19:25:00,
2013-05-12 14:30:00,79.6,57.0,30.09,NE,42,3.0,3.0,46,0.00,,,0.00,1009,Wunderground v.1.15,2013-05-12 19:30:00,
2013-05-12 14:35:00,80.9,56.9,30.09,NE,38,3.0,7.0,44,0.00,,,0.00,1055,Wunderground v.1.15,2013-05-12 19:35:00,
2013-05-12 14:40:00,80.3,55.1,30.09,NE,47,3.0,3.0,42,0.00,,,0.00,997,Wunderground v.1.15,2013-05-12 19:40:00,
2013-05-12 14:45:00,80.4,57.7,30.08,NE,43,3.0,3.0,46,0.00,,,0.00,937,Wunderground v.1.15,2013-05-12 19:45:00,
2013-05-12 14:50:00,80.2,55.7,30.08,NNE,24,1.0,1.0,43,0.00,,,0.00,624,Wunderground v.1.15,2013-05-12 19:50:00,
2013-05-12 14:55:00,79.6,54.5,30.08,ENE,61,2.0,2.0,42,0.00,,,0.00,587,Wunderground v.1.15,2013-05-12 19:55:00,
2013-05-12 15:05:00,79.3,56.7,30.08,ENE,74,1.0,2.0,46,0.00,,,0.00,856,Wunderground v.1.15,2013-05-12 20:05:00,
2013-05-12 15:10:00,79.9,54.8,30.08,NE,52,2.0,2.0,42,0.00,,,0.00,404,Wunderground v.1.15,2013-05-12 20:10:00,
2013-05-12 15:15:00,79.4,55.0,30.08,NE,44,3.0,3.0,43,0.00,,,0.00,571,Wunderground v.1.15,2013-05-12 20:15:00,
2013-05-12 15:20:00,78.8,57.4,30.08,NE,46,3.0,3.0,48,0.00,,,0.00,928,Wunderground v.1.15,2013-05-12 20:20:00,
2013-05-12 15:25:00,79.2,58.4,30.08,NE,52,2.0,4.0,49,0.00,,,0.00,534,Wunderground v.1.15,2013-05-12 20:25:00,
2013-05-12 15:30:00,79.6,55.1,30.08,NNE,32,2.0,6.0,43,0.00,,,0.00,510,Wunderground v.1.15,2013-05-12 20:30:00,
2013-05-12 15:35:00,79.5,55.7,30.08,NE,53,3.0,9.0,44,0.00,,,0.00,555,Wunderground v.1.15,2013-05-12 20:35:00,
2013-05-12 15:40:00,79.1,55.9,30.08,ENE,60,4.0,8.0,45,0.00,,,0.00,545,Wunderground v.1.15,2013-05-12 20:40:00,
2013-05-12 15:45:00,79.7,56.5,30.06,ENE,65,5.0,12.0,45,0.00,,,0.00,483,Wunderground v.1.15,2013-05-12 20:45:00,
2013-05-12 15:50:00,79.1,54.0,30.06,ENE,63,6.0,6.0,42,0.00,,,0.00,410,Wunderground v.1.15,2013-05-12 20:50:00,
2013-05-12 15:55:00,79.3,55.5,30.06,NE,38,6.0,7.0,44,0.00,,,0.00,1004,Wunderground v.1.15,2013-05-12 20:55:00,
2013-05-12 16:00:00,79.9,56.7,30.05,NE,46,4.0,4.0,45,0.00,,,0.00,888,Wunderground v.1.15,2013-05-12 21:00:00,
2013-05-12 16:05:00,80.2,55.7,30.05,NE,51,4.0,4.0,43,0.00,,,0.00,877,Wunderground v.1.15,2013-05-12 21:05:00,
2013-05-12 16:15:00,78.7,56.8,30.05,ENE,62,2.0,4.0,47,0.00,,,0.00,369,Wunderground v.1.15,2013-05-12 21:15:00,
2013-05-12 16:20:00,79.1,55.3,30.05,NNE,30,1.0,2.0,44,0.00,,,0.00,399,Wunderground v.1.15,2013-05-12 21:20:00,
2013-05-12 16:30:00,79.7,56.5,30.04,East,98,2.0,2.0,45,0.00,,,0.00,838,Wunderground v.1.15,2013-05-12 21:30:00,
2013-05-12 16:40:00,80.3,55.8,30.04,ENE,60,2.0,2.0,43,0.00,,,0.00,921,Wunderground v.1.15,2013-05-12 21:40:00,
2013-05-12 16:45:00,80.0,55.5,30.04,NE,53,3.0,3.0,43,0.00,,,0.00,715,Wunderground v.1.15,2013-05-12 21:45:00,
2013-05-12 16:50:00,80.3,53.8,30.04,ENE,59,4.0,7.0,40,0.00,,,0.00,673,Wunderground v.1.15,2013-05-12 21:50:00,
2013-05-12 16:55:00,80.2,53.0,30.04,NE,56,5.0,7.0,39,0.00,,,0.00,656,Wunderground v.1.15,2013-05-12 21:55:00,
2013-05-12 17:00:00,80.4,53.2,30.03,NE,47,4.0,4.0,39,0.00,,,0.00,635,Wunderground v.1.15,2013-05-12 22:00:00,
2013-05-12 17:05:00,80.5,53.3,30.03,ENE,74,3.0,4.0,39,0.00,,,0.00,610,Wunderground v.1.15,2013-05-12 22:05:00,
2013-05-12 17:10:00,80.5,55.3,30.03,NE,53,3.0,3.0,42,0.00,,,0.00,645,Wunderground v.1.15,2013-05-12 22:10:00,
2013-05-12 17:20:00,79.3,52.2,30.03,NNE,33,4.0,5.0,39,0.00,,,0.00,608,Wunderground v.1.15,2013-05-12 22:20:00,
2013-05-12 17:25:00,78.9,52.5,30.03,NE,38,5.0,5.0,40,0.00,,,0.00,241,Wunderground v.1.15,2013-05-12 22:25:00,
2013-05-12 17:30:00,79.4,54.3,30.02,NE,46,4.0,5.0,42,0.00,,,0.00,763,Wunderground v.1.15,2013-05-12 22:30:00,
2013-05-12 17:35:00,80.3,53.8,30.02,NE,49,5.0,10.0,40,0.00,,,0.00,605,Wunderground v.1.15,2013-05-12 22:35:00,
2013-05-12 17:40:00,80.2,56.3,30.02,North,9,4.0,4.0,44,0.00,,,0.00,512,Wunderground v.1.15,2013-05-12 22:40:00,
2013-05-12 17:50:00,79.8,53.3,30.02,NE,44,5.0,5.0,40,0.00,,,0.00,439,Wunderground v.1.15,2013-05-12 22:50:00,
2013-05-12 17:55:00,79.4,54.3,30.02,NE,55,5.0,5.0,42,0.00,,,0.00,411,Wunderground v.1.15,2013-05-12 22:55:00,
2013-05-12 18:00:00,79.1,54.0,30.03,NNE,30,3.0,3.0,42,0.00,,,0.00,399,Wunderground v.1.15,2013-05-12 23:00:00,
2013-05-12 18:05:00,79.1,53.4,30.03,NE,41,3.0,3.0,41,0.00,,,0.00,383,Wunderground v.1.15,2013-05-12 23:05:00,
2013-05-12 18:10:00,78.9,53.2,30.03,ENE,69,4.0,4.0,41,0.00,,,0.00,369,Wunderground v.1.15,2013-05-12 23:10:00,
2013-05-12 18:15:00,78.8,53.1,30.02,ENE,65,4.0,4.0,41,0.00,,,0.00,355,Wunderground v.1.15,2013-05-12 23:15:00,
2013-05-12 18:20:00,78.9,55.8,30.02,NE,53,3.0,3.0,45,0.00,,,0.00,343,Wunderground v.1.15,2013-05-12 23:20:00,
2013-05-12 18:25:00,79.0,55.2,30.02,NE,42,2.0,3.0,44,0.00,,,0.00,336,Wunderground v.1.15,2013-05-12 23:25:00,
2013-05-12 18:35:00,78.7,53.7,30.02,NNE,17,2.0,4.0,42,0.00,,,0.00,105,Wunderground v.1.15,2013-05-12 23:35:00,
2013-05-12 18:40:00,78.2,53.9,30.02,NE,40,4.0,4.0,43,0.00,,,0.00,279,Wunderground v.1.15,2013-05-12 23:40:00,
2013-05-12 18:50:00,78.1,54.4,30.02,NE,56,2.0,2.0,44,0.00,,,0.00,246,Wunderground v.1.15,2013-05-12 23:50:00,
2013-05-12 19:00:00,77.8,54.8,30.02,NE,56,3.0,3.0,45,0.00,,,0.00,51,Wunderground v.1.15,2013-05-13 00:00:00,
2013-05-12 19:05:00,77.6,54.6,30.02,NE,35,2.0,3.0,45,0.00,,,0.00,60,Wunderground v.1.15,2013-05-13 00:05:00,
2013-05-12 19:15:00,77.2,54.8,30.02,NE,53,2.0,2.0,46,0.00,,,0.00,76,Wunderground v.1.15,2013-05-13 00:15:00,
2013-05-12 19:20:00,77.1,54.7,30.02,East,82,1.0,1.0,46,0.00,,,0.00,86,Wunderground v.1.15,2013-05-13 00:20:00,
2013-05-12 19:25:00,77.0,55.2,30.02,ENE,78,1.0,2.0,47,0.00,,,0.00,62,Wunderground v.1.15,2013-05-13 00:25:00,
2013-05-12 19:35:00,76.7,54.4,30.03,NE,52,1.0,2.0,46,0.00,,,0.00,39,Wunderground v.1.15,2013-05-13 00:35:00,
2013-05-12 19:40:00,76.5,54.2,30.03,NE,55,2.0,2.0,46,0.00,,,0.00,28,Wunderground v.1.15,2013-05-13 00:40:00,
2013-05-12 19:45:00,76.3,54.0,30.03,NE,55,1.0,2.0,46,0.00,,,0.00,28,Wunderground v.1.15,2013-05-13 00:45:00,
2013-05-12 19:50:00,76.1,55.0,30.03,East,100,1.0,1.0,48,0.00,,,0.00,25,Wunderground v.1.15,2013-05-13 00:50:00,
2013-05-12 19:55:00,75.9,54.8,30.03,East,100,0.0,1.0,48,0.00,,,0.00,16,Wunderground v.1.15,2013-05-13 00:55:00,
2013-05-12 20:00:00,75.7,54.6,30.04,East,100,0.0,0.0,48,0.00,,,0.00,14,Wunderground v.1.15,2013-05-13 01:00:00,
2013-05-12 20:05:00,75.4,54.3,30.04,ENE,70,0.0,0.0,48,0.00,,,0.00,12,Wunderground v.1.15,2013-05-13 01:05:00,
2013-05-12 20:10:00,75.0,54.0,30.04,ENE,70,0.0,0.0,48,0.00,,,0.00,7,Wunderground v.1.15,2013-05-13 01:10:00,
2013-05-12 20:15:00,74.6,53.6,30.05,NNE,12,0.0,0.0,48,0.00,,,0.00,5,Wunderground v.1.15,2013-05-13 01:15:00,
2013-05-12 20:20:00,74.4,53.4,30.05,NNE,12,0.0,0.0,48,0.00,,,0.00,0,Wunderground v.1.15,2013-05-13 01:20:00,
2013-05-12 20:25:00,74.1,53.7,30.05,NNE,12,0.0,0.0,49,0.00,,,0.00,0,Wunderground v.1.15,2013-05-13 01:25:00,
2013-05-12 20:30:00,73.8,53.4,30.06,NNE,12,0.0,0.0,49,0.00,,,0.00,0,Wunderground v.1.15,2013-05-13 01:30:00,
2013-05-12 20:35:00,73.5,53.2,30.06,NNE,12,0.0,0.0,49,0.00,,,0.00,0,Wunderground v.1.15,2013-05-13 01:35:00,
2013-05-12 20:40:00,73.1,53.4,30.06,NNE,12,0.0,0.0,50,0.00,,,0.00,0,Wunderground v.1.15,2013-05-13 01:40:00,
2013-05-12 20:45:00,72.9,53.7,30.06,NNE,12,0.0,0.0,51,0.00,,,0.00,0,Wunderground v.1.15,2013-05-13 01:45:00,
2013-05-12 20:50:00,72.6,53.4,30.06,North,11,0.0,0.0,51,0.00,,,0.00,0,Wunderground v.1.15,2013-05-13 01:50:00,
2013-05-12 21:00:00,72.0,53.4,30.07,NNE,12,0.0,0.0,52,0.00,,,0.00,0,Wunderground v.1.15,2013-05-13 02:00:00,
2013-05-12 21:05:00,71.6,53.6,30.07,NNE,12,0.0,0.0,53,0.00,,,0.00,0,Wunderground v.1.15,2013-05-13 02:05:00,
2013-05-12 21:10:00,71.3,53.8,30.07,NNE,12,0.0,0.0,54,0.00,,,0.00,0,Wunderground v.1.15,2013-05-13 02:10:00,
2013-05-12 21:15:00,71.0,53.5,30.07,NNE,12,0.0,0.0,54,0.00,,,0.00,0,Wunderground v.1.15,2013-05-13 02:15:00,
2013-05-12 21:20:00,70.7,53.7,30.07,NNE,12,0.0,0.0,55,0.00,,,0.00,0,Wunderground v.1.15,2013-05-13 02:20:00,
2013-05-12 21:25:00,70.4,53.5,30.07,NNE,12,0.0,0.0,55,0.00,,,0.00,0,Wunderground v.1.15,2013-05-13 02:25:00,
2013-05-12 21:30:00,70.0,53.1,30.07,North,11,0.0,0.0,55,0.00,,,0.00,0,Wunderground v.1.15,2013-05-13 02:30:00,
2013-05-12 21:35:00,69.7,53.3,30.07,NNE,12,0.0,0.0,56,0.00,,,0.00,0,Wunderground v.1.15,2013-05-13 02:35:00,
2013-05-12 21:40:00,69.3,53.4,30.07,NNE,12,0.0,0.0,57,0.00,,,0.00,0,Wunderground v.1.15,2013-05-13 02:40:00,
2013-05-12 21:45:00,69.0,53.1,30.08,North,11,0.0,0.0,57,0.00,,,0.00,0,Wunderground v.1.15,2013-05-13 02:45:00,
2013-05-12 21:50:00,68.7,53.3,30.08,North,11,0.0,0.0,58,0.00,,,0.00,0,Wunderground v.1.15,2013-05-13 02:50:00,
2013-05-12 21:55:00,68.4,53.5,30.08,North,11,0.0,0.0,59,0.00,,,0.00,0,Wunderground v.1.15,2013-05-13 02:55:00,
2013-05-12 22:00:00,68.2,53.3,30.08,NNE,12,0.0,0.0,59,0.00,,,0.00,0,Wunderground v.1.15,2013-05-13 03:00:00,
2013-05-12 22:05:00,68.0,53.6,30.08,NNE,12,0.0,0.0,60,0.00,,,0.00,0,Wunderground v.1.15,2013-05-13 03:05:00,
2013-05-12 22:10:00,67.7,53.3,30.08,NNE,12,0.0,0.0,60,0.00,,,0.00,0,Wunderground v.1.15,2013-05-13 03:10:00,
2013-05-12 22:20:00,67.3,53.8,30.09,North,11,0.0,0.0,62,0.00,,,0.00,0,Wunderground v.1.15,2013-05-13 03:20:00,
2013-05-12 22:25:00,67.0,54.0,30.09,North,11,0.0,0.0,63,0.00,,,0.00,0,Wunderground v.1.15,2013-05-13 03:25:00,
2013-05-12 22:30:00,66.8,53.8,30.09,NNE,12,0.0,0.0,63,0.00,,,0.00,0,Wunderground v.1.15,2013-05-13 03:30:00,
2013-05-12 22:35:00,66.5,53.9,30.09,NNE,12,0.0,0.0,64,0.00,,,0.00,0,Wunderground v.1.15,2013-05-13 03:35:00,
2013-05-12 22:45:00,66.0,53.9,30.09,NNE,12,0.0,0.0,65,0.00,,,0.00,0,Wunderground v.1.15,2013-05-13 03:45:00,
2013-05-12 22:50:00,65.7,53.6,30.09,NNE,12,0.0,0.0,65,0.00,,,0.00,0,Wunderground v.1.15,2013-05-13 03:50:00,
2013-05-12 23:00:00,65.3,53.6,30.10,NNE,12,0.0,0.0,66,0.00,,,0.00,0,Wunderground v.1.15,2013-05-13 04:00:00,
2013-05-12 23:05:00,65.2,54.0,30.10,NNE,12,0.0,0.0,67,0.00,,,0.00,0,Wunderground v.1.15,2013-05-13 04:05:00,
2013-05-12 23:10:00,65.0,53.8,30.10,NNE,12,0.0,0.0,67,0.00,,,0.00,0,Wunderground v.1.15,2013-05-13 04:10:00,
2013-05-12 23:20:00,64.7,53.9,30.10,NNE,12,0.0,0.0,68,0.00,,,0.00,0,Wunderground v.1.15,2013-05-13 04:20:00,
2013-05-12 23:25:00,64.6,54.2,30.10,North,11,0.0,0.0,69,0.00,,,0.00,0,Wunderground v.1.15,2013-05-13 04:25:00,
2013-05-12 23:30:00,64.4,54.0,30.10,North,11,0.0,0.0,69,0.00,,,0.00,0,Wunderground v.1.15,2013-05-13 04:30:00,
2013-05-12 23:35:00,64.3,53.9,30.10,NNE,12,0.0,0.0,69,0.00,,,0.00,0,Wunderground v.1.15,2013-05-13 04:35:00,
2013-05-12 23:40:00,64.1,54.1,30.10,North,11,0.0,0.0,70,0.00,,,0.00,0,Wunderground v.1.15,2013-05-13 04:40:00,
2013-05-12 23:50:00,63.8,53.8,30.10,North,11,0.0,0.0,70,0.00,,,0.00,0,Wunderground v.1.15,2013-05-13 04:50:00,
2013-05-12 23:55:00,63.7,53.7,30.10,North,11,0.0,0.0,70,0.00,,,0.00,0,Wunderground v.1.15,2013-05-13 04:55:00,